Wind_Speed
42 46 43 56 61 62 64 63 59 57 53 51 51 54 53 58 62 59 68 68 75 83 80 72 77 80 79 79 81 82 83 82
36 43 50 62 62 58 56 56 51 50 52 52 55 58 63 60 61 66 71 71 78 81 79 90 82 76 81 81 79 86 90 93
43 44 50 58 57 53 53 50 49 51 51 54 61 67 62 61 68 74 79 79 79 76 87 84 75 77 82 91 90 94 87 93
40 44 44 49 53 52 51 51 55 52 57 61 61 58 66 70 73 71 76 74 82 87 86 82 86 88 93 95 92 100 98 92
49 54 54 59 57 53 53 54 55 56 60 63 66 68 73 73 76 80 77 81 86 91 92 95 89 93 98 95 101 94 91 86
51 53 52 67 56 58 64 64 65 64 66 64 71 71 76 79 79 81 84 87 85 83 91 94 95 93 94 94 95 91 89 86
62 64 62 63 64 63 70 71 75 78 80 76 78 82 83 81 82 85 90 91 93 97 99 101 99 99 101 99 100 92 88 80
62 69 77 72 72 74 78 81 81 81 81 85 89 93 91 94 95 98 99 101 102 99 94 95 99 99 98 92 82 79 77 77
57 72 71 73 78 82 84 86 86 90 93 96 98 100 101 97 99 96 95 96 96 99 98 100 100 96 88 84 80 80 82 81
59 68 73 80 81 84 87 84 85 88 92 91 91 92 92 93 97 96 94 92 91 92 93 92 86 84 83 83 80 80 82 82
47 53 61 66 66 70 78 81 79 84 84 79 79 82 86 89 89 89 88 87 85 82 79 79 80 81 81 81 78 76 76 75
45 48 51 59 59 61 61 63 67 69 74 76 76 80 75 75 78 77 77 76 76 76 76 76 76 75 77 78 76 73 73 72
49 45 49 54 59 62 64 65 64 63 65 69 71 72 70 68 68 69 71 72 73 74 73 74 76 78 77 75 76 76 75 76
51 49 48 48 52 54 59 59 59 57 57 56 58 58 57 56 60 63 66 69 71 71 72 75 77 77 77 75 75 77 79 81
47 46 48 49 49 47 45 44 44 47 48 48 50 53 56 60 63 65 67 68 70 73 75 76 76 77 78 79 80 80 83 89
39 40 37 38 37 36 38 39 40 41 44 47 51 55 57 62 66 69 72 74 76 77 79 80 80 81 83 86 89 91 91 95
31 32 31 33 37 38 38 38 41 43 47 51 54 58 61 65 69 73 78 80 81 81 82 83 86 89 92 95 98 103 104 103
28 31 33 36 38 40 42 45 48 51 54 57 61 65 68 73 77 80 83 81 81 84 85 90 95 97 100 103 105 104 100 99
29 33 36 41 44 45 47 50 53 55 59 64 69 72 75 79 82 83 81 82 85 90 94 97 101 105 109 109 105 103 103 104
29 35 40 46 49 51 52 55 60 63 67 68 70 76 80 84 85 84 84 84 89 95 100 104 109 111 108 105 103 104 105 106
Wind_Direction
257 266 264 262 267 266 272 272 276 278 273 269 266 269 272 274 275 282 276 276 279 278 287 291 290 295 294 292 292 295 295 295
241 244 247 255 263 268 273 281 279 276 272 268 264 268 280 283 279 279 274 279 282 283 289 295 296 289 293 292 291 294 296 297
222 225 245 254 262 265 268 266 270 271 272 273 264 276 281 278 277 278 282 285 284 290 289 292 290 291 292 298 297 297 297 298
232 233 238 242 248 258 257 261 266 262 265 269 272 280 275 276 277 278 284 284 282 285 291 290 290 294 295 296 297 296 295 295
216 233 238 252 257 246 248 254 257 262 267 273 275 275 274 276 277 277 283 285 286 287 290 291 293 293 294 297 297 294 294 293
223 231 245 243 242 246 248 250 255 264 264 268 272 276 275 278 283 284 288 288 290 289 292 295 296 295 295 295 296 295 293 291
212 224 232 237 237 239 244 248 255 262 265 270 273 275 279 282 281 285 286 288 288 288 287 293 295 295 293 291 290 290 288 285
221 226 232 233 240 245 249 252 259 262 265 269 275 279 279 283 286 287 291 288 291 292 291 292 291 290 289 289 288 286 286 285
239 232 238 245 248 252 257 259 263 264 266 269 272 276 281 284 287 288 288 289 290 290 292 289 289 289 289 290 289 288 287 287
243 242 243 245 250 256 260 262 267 269 272 277 280 282 282 285 287 287 289 290 290 291 291 292 291 290 289 288 287 286 283 280
253 246 244 250 258 263 262 265 269 271 273 277 279 280 283 284 285 286 287 288 288 288 287 289 291 292 292 292 293 292 291 290
260 257 256 253 257 263 266 270 274 275 275 278 280 279 281 283 287 288 288 289 290 292 292 292 292 293 294 295 294 292 290 290
265 267 264 261 262 264 267 273 275 277 276 276 281 284 285 284 285 287 291 293 293 293 294 294 293 293 296 296 295 293 290 289
265 269 269 270 271 270 270 273 276 277 279 280 280 282 288 294 296 299 301 301 301 300 299 298 297 295 293 292 292 292 291 288
268 269 269 269 270 273 276 277 277 279 281 286 290 293 296 298 302 305 306 306 305 303 301 300 297 294 293 292 291 290 290 289
270 272 272 272 271 266 266 270 276 283 288 291 296 298 302 304 305 307 306 305 303 303 300 300 298 297 296 296 294 293 290 290
271 272 271 271 274 274 274 275 281 287 291 295 299 300 304 305 305 306 306 306 306 304 304 304 303 303 302 302 301 300 299 296
270 270 269 274 279 280 284 288 290 294 296 298 300 304 307 307 307 308 308 307 307 306 307 307 306 306 305 304 304 302 299 298
271 277 283 285 288 290 292 295 296 298 304 307 308 309 309 309 309 309 309 309 309 308 308 308 307 308 306 307 306 304 302 300
292 295 295 294 295 297 302 304 304 305 308 308 308 309 309 309 309 309 309 309 309 310 310 310 310 310 308 307 305 303 302 302
Height
10778 10782 10778 10766 10761 10761 10761 10765 10764 10764 10762 10761 10762 10762 10762 10760 10755 10755 10751 10749 10744 10739 10739 10735 10729 10726 10723 10716 10712 10713 10708 10701
10777 10772 10768 10757 10754 10753 10755 10753 10752 10753 10752 10752 10754 10751 10751 10749 10747 10742 10739 10737 10730 10727 10725 10724 10717 10711 10708 10703 10698 10698 10695 10687
10761 10758 10757 10744 10747 10748 10748 10747 10747 10746 10744 10746 10743 10741 10741 10739 10734 10730 10728 10725 10717 10714 10713 10708 10705 10699 10692 10688 10680 10678 10677 10670
10752 10751 10747 10741 10740 10741 10740 10739 10739 10738 10736 10736 10732 10732 10726 10726 10722 10719 10717 10712 10703 10700 10697 10691 10689 10683 10677 10673 10665 10658 10657 10655
10745 10740 10742 10738 10734 10735 10733 10729 10730 10727 10726 10727 10722 10720 10715 10712 10711 10707 10703 10699 10691 10684 10679 10675 10673 10665 10662 10657 10647 10643 10640 10635
10735 10735 10735 10731 10727 10727 10723 10719 10719 10719 10716 10714 10709 10710 10704 10699 10696 10691 10686 10682 10676 10671 10664 10657 10655 10650 10644 10637 10632 10624 10617 10613
10716 10717 10719 10720 10717 10715 10711 10708 10707 10708 10704 10704 10698 10693 10690 10685 10681 10676 10675 10667 10661 10656 10651 10643 10635 10631 10627 10624 10619 10612 10601 10598
10712 10709 10708 10711 10707 10704 10700 10695 10695 10694 10694 10690 10685 10679 10676 10673 10666 10661 10655 10647 10641 10636 10631 10625 10622 10617 10611 10604 10600 10592 10584 10578
10708 10704 10704 10704 10700 10696 10692 10690 10689 10684 10681 10680 10675 10668 10662 10654 10649 10644 10639 10633 10626 10619 10612 10609 10603 10598 10590 10585 10581 10574 10565 10562
10696 10696 10693 10691 10691 10688 10682 10680 10677 10673 10669 10664 10660 10654 10649 10641 10635 10631 10626 10619 10612 10604 10595 10589 10582 10578 10570 10566 10564 10555 10546 10542
10683 10685 10685 10683 10681 10676 10674 10671 10666 10662 10657 10651 10647 10639 10639 10631 10625 10617 10610 10604 10599 10592 10584 10578 10569 10560 10553 10546 10543 10535 10524 10521
10674 10676 10675 10671 10672 10669 10664 10663 10657 10652 10647 10641 10638 10630 10629 10621 10612 10604 10596 10589 10582 10575 10569 10561 10553 10546 10539 10530 10522 10517 10508 10502
10663 10666 10664 10660 10657 10657 10656 10650 10645 10641 10635 10632 10624 10618 10611 10606 10601 10593 10585 10575 10568 10561 10553 10546 10537 10530 10525 10516 10507 10500 10494 10485
10652 10654 10653 10651 10647 10648 10642 10639 10634 10630 10623 10619 10612 10607 10601 10594 10586 10579 10571 10562 10552 10545 10537 10529 10521 10514 10508 10501 10492 10481 10471 10463
10643 10644 10643 10642 10640 10635 10631 10628 10622 10616 10612 10607 10600 10594 10587 10581 10572 10565 10556 10548 10538 10529 10520 10512 10503 10494 10486 10478 10472 10466 10456 10441
10634 10630 10633 10630 10630 10628 10624 10621 10615 10609 10603 10596 10589 10582 10574 10566 10559 10550 10541 10533 10523 10515 10502 10493 10482 10473 10463 10454 10443 10435 10428 10419
10625 10625 10625 10621 10618 10616 10612 10608 10602 10598 10592 10584 10578 10570 10564 10554 10545 10535 10524 10513 10502 10492 10481 10470 10459 10449 10437 10425 10414 10401 10387 10377
10622 10620 10618 10613 10610 10606 10600 10594 10588 10582 10577 10570 10563 10555 10547 10538 10527 10517 10506 10494 10482 10469 10460 10448 10435 10424 10411 10398 10387 10371 10356 10343
10615 10612 10609 10603 10598 10593 10590 10584 10576 10569 10562 10554 10546 10538 10529 10519 10508 10497 10485 10472 10462 10447 10437 10427 10413 10399 10382 10367 10353 10337 10325 10308
10607 10604 10598 10589 10584 10580 10575 10568 10561 10555 10548 10540 10532 10521 10512 10501 10489 10477 10466 10454 10442 10427 10414 10399 10384 10368 10352 10338 10324 10311 10294 10274